[[{"header":{"parameterUnit":"m.s-1","parameterCategory":1,"la1":30.2991,"la2":30.254,"lo1":-89.0895,"lo2":-89.0444,"dy":0.0017,"dx":0.0017,"nx":28,"ny":28,"refTime":"2025-01-10T03:00:00:Z","depth":0,"parameterNumber":2,"parameterNumberName":"U-component_of_WINDS"},"data":[0,0,0,0,0,0,0,0,0,0,0,0,0,0,0,0,0,0,0,0,0,0,0,0,0,0,0,0,0,0,0,0,0,0,0,0,0,0,0,0,0,0,0,0,0,0,0,0,0,0,0,0,0,0,0,0,0,0,4.5455,4.5456,0,4.5532,4.5533,4.5533,4.5483,4.548,4.5478,4.5476,4.5552,4.5556,4.556,0,0,0,0,0,0,0,0,0,0,0,0,0,4.5265,4.5269,4.5455,4.5456,4.5457,4.5532,4.5533,4.5534,4.5483,4.548,4.5477,4.5475,4.555,4.5555,4.556,0,0,0,0,0,0,0,0,0,0,0,0,0,4.5345,4.527,4.5455,4.5441,4.5441,4.5531,4.5533,4.5534,4.5484,4.548,4.5477,4.5473,4.5549,4.5555,4.5561,4.5669,0,0,4.558,4.5583,0,0,0,0,0,0,0,0,4.5341,4.5352,4.5442,4.5442,4.5442,4.5494,4.5493,4.5579,4.5484,4.5467,4.5476,4.5472,4.5535,4.5542,4.5564,4.5673,4.5676,4.5581,4.5584,4.5587,4.5589,0,0,0,0,0,0,0,4.5335,4.5348,4.5485,4.5444,4.5443,4.5431,4.5438,4.5509,4.552,4.5468,4.5465,4.5475,4.5534,4.5558,4.5566,4.5677,4.558,4.5586,4.559,4.5592,4.588,4.5884,0,0,0,0,0,0,4.5331,4.5344,4.5483,4.5488,4.5382,4.5437,4.5445,4.5481,4.5519,4.5521,4.5478,4.5472,4.5549,4.5558,4.5568,4.5698,4.5587,4.5593,4.5597,4.5876,4.5881,4.5885,0,0,0,0,0,0,4.5327,4.5344,4.548,4.5415,4.5432,4.5444,4.5484,4.5484,4.5508,4.5526,4.5527,4.55,4.5547,4.5559,4.5645,4.57,4.5596,4.5601,4.5872,4.5878,4.5883,4.596,0,0,0,0,0,0,4.5322,4.5343,4.5384,4.5416,4.5435,4.5556,4.5488,4.5488,4.5519,4.5513,4.5547,4.555,4.5545,4.5636,4.5651,4.5707,4.5606,4.5867,4.5875,4.5881,4.5952,4.5967,4.598,0,0,0,0,0,4.5315,4.5402,4.5386,4.5403,4.5487,4.5559,4.557,4.5564,4.5524,4.5566,4.5577,4.5549,4.5692,4.5645,4.5662,4.572,4.5863,4.5872,4.5881,4.5946,4.5964,4.598,0,0,0,0,0,0,4.5374,4.5405,4.5389,4.5488,4.5522,4.5551,4.5603,4.5583,4.5628,4.5619,4.5609,4.5617,4.5707,4.5722,4.567,4.5828,4.5771,4.5784,4.5815,4.5833,4.5847,4.5841,4.5612,0,0,0,0,0,4.5399,4.5455,4.5479,4.5565,4.5583,4.559,4.5621,4.5614,4.5647,4.5661,4.5679,4.5712,4.5765,4.58,4.5849,4.5954,4.5962,4.6003,4.6017,4.6029,4.6039,4.6098,4.6117,4.5914,4.5914,4.5914,0,0,4.545,4.5474,4.551,4.5577,4.5602,4.5661,4.5602,4.5666,4.571,4.567,4.5753,4.5768,4.5804,4.5901,4.5944,4.5916,4.6097,4.604,4.6049,4.6053,4.6109,4.6128,4.6145,4.592,4.5919,4.5918,0,0,4.5573,4.5597,4.5672,4.5699,4.5738,4.5742,4.5761,4.5793,4.5802,4.5885,4.5857,4.5909,4.5999,4.6027,4.6053,4.619,4.6165,4.6206,4.6279,4.6336,4.6352,4.6366,4.6415,4.6433,4.6217,4.6217,4.6217,0,4.5631,4.5719,4.5712,4.5779,4.581,4.5779,4.5855,4.5881,4.5934,4.5956,4.5924,4.6038,4.6061,4.6164,4.6198,4.622,4.624,4.6202,4.635,4.6364,4.6377,4.6424,4.6443,4.6222,4.6221,4.6221,4.622,0,4.579,4.5851,4.5907,4.596,4.5997,4.6068,4.6072,4.6111,4.6101,4.6109,4.6195,4.6221,4.6276,4.63,4.6289,4.6402,4.6384,4.6352,4.6294,4.6402,4.6446,4.6464,4.6229,4.6227,4.6225,4.6224,0,0,4.595,4.6001,4.6022,4.6046,4.6088,4.6136,4.6206,4.6261,4.6294,4.6332,4.6391,4.647,4.6441,4.647,4.6463,4.6514,4.6622,4.6475,4.6476,4.6502,4.6748,4.6772,4.6793,4.6606,4.6609,4.6612,4.6745,0,4.6077,4.62,4.6197,4.6311,4.6368,4.6341,4.6402,4.6434,4.6445,4.6494,4.6505,4.6562,4.6519,4.6537,4.6585,4.6598,4.6671,4.6588,4.666,4.6663,4.6652,4.6816,4.6841,4.6966,4.6762,4.6765,4.6767,0,4.624,4.6285,4.6406,4.6441,4.6465,4.652,4.6571,4.6619,4.6656,4.666,4.6695,4.668,4.6752,4.6693,4.6792,4.6736,4.6765,4.6777,4.6781,4.6787,4.6721,4.6827,4.7005,4.7024,4.6794,4.6792,4.679,0,4.6346,4.6437,4.6521,4.6543,4.6586,4.6626,4.6646,4.6679,4.6713,4.6758,4.678,4.6831,4.686,4.6901,4.6901,4.6858,4.7001,4.6942,4.7006,4.7007,4.7037,4.7035,4.7223,4.7056,4.7056,4.7056,4.7055,0,4.6487,4.6562,4.657,4.6622,4.6705,4.6701,4.6784,4.68,4.683,4.6885,4.6864,4.6915,4.6913,4.6965,4.6966,4.7048,4.7061,4.7066,4.7065,4.7068,4.7068,4.7087,4.7078,4.7061,4.706,4.7059,4.7058,0,4.6619,4.6627,4.6718,4.6752,4.6763,4.6823,4.6852,4.6901,4.6911,4.698,4.6996,4.701,4.7071,4.7076,4.7146,4.7146,4.7246,4.7236,4.7234,4.7232,4.7296,4.729,4.7503,4.7531,4.7346,4.7348,4.735,0,4.6709,4.6766,4.6807,4.6843,4.6865,4.6923,4.6958,4.6956,4.6994,4.7041,4.7085,4.7144,4.7191,4.729,4.7306,4.736,4.7351,4.7422,4.7359,4.736,4.7353,4.7349,4.7355,4.7434,4.7436,4.7438,4.7439,0,4.6867,4.6869,4.692,4.6975,4.7017,4.7059,4.7099,4.7129,4.7132,4.7175,4.7238,4.7275,4.7348,4.7407,4.746,4.748,4.7461,4.7459,4.7477,4.748,4.7477,4.748,4.7268,4.7454,4.7452,4.7451,4.745,4.745,4.6981,4.7031,4.7069,4.7127,4.7157,4.7195,4.7244,4.726,4.7312,4.7372,4.7368,4.7438,4.7474,4.7544,4.7568,4.7623,4.7599,4.7624,4.7631,4.7637,4.7644,4.7469,4.7632,4.7632,4.7631,4.7631,4.7631,0,4.7138,4.7162,4.7216,4.7272,4.7319,4.7298,4.7341,4.7381,4.7443,4.7479,4.7527,4.76,4.7657,4.7679,4.7736,4.7775,4.7768,4.779,4.7787,4.7792,4.7662,4.7641,4.7795,4.7795,4.7795,4.7795,4.7795,4.7795,4.7226,4.731,4.7317,4.7416,4.7439,4.7508,4.7534,4.7569,4.7598,4.7681,4.7729,4.7744,4.7774,4.7833,4.7886,4.7891,4.7912,4.7939,4.794,4.7818,4.7801,4.7785,4.7766,4.7944,4.7944,4.8066,4.8067,4.8068]},{"header":{"parameterUnit":"m.s-1","parameterCategory":1,"la1":30.2991,"la2":30.254,"lo1":-89.0895,"lo2":-89.0444,"dy":0.0017,"dx":0.0017,"nx":28,"ny":28,"refTime":"2025-01-10T03:00:00:Z","depth":0,"parameterNumber":3,"parameterNumberName":"V-component_of_WINDS"},"data":[0,0,0,0,0,0,0,0,0,0,0,0,0,0,0,0,0,0,0,0,0,0,0,0,0,0,0,0,0,0,0,0,0,0,0,0,0,0,0,0,0,0,0,0,0,0,0,0,0,0,0,0,0,0,0,0,0,0,-5.8891,-5.8892,0,-5.9071,-5.9073,-5.9075,-5.9053,-5.905,-5.9047,-5.9044,-5.9227,-5.9234,-5.9242,0,0,0,0,0,0,0,0,0,0,0,0,0,-5.8525,-5.8532,-5.889,-5.8893,-5.8895,-5.9071,-5.9073,-5.9076,-5.9053,-5.905,-5.9046,-5.9043,-5.9224,-5.9233,-5.9242,0,0,0,0,0,0,0,0,0,0,0,0,0,-5.8693,-5.8535,-5.889,-5.8905,-5.8908,-5.907,-5.9073,-5.9076,-5.9054,-5.9049,-5.9045,-5.9041,-5.9221,-5.9232,-5.9244,-5.9402,0,0,-5.9278,-5.9283,0,0,0,0,0,0,0,0,-5.8683,-5.8706,-5.89,-5.8904,-5.8908,-5.9035,-5.9011,-5.9185,-5.9055,-5.8999,-5.9044,-5.9039,-5.9166,-5.9182,-5.9225,-5.941,-5.9418,-5.9279,-5.9286,-5.9291,-5.9294,0,0,0,0,0,0,0,-5.8672,-5.8698,-5.8962,-5.8903,-5.8908,-5.8902,-5.8921,-5.9044,-5.9105,-5.9003,-5.9002,-5.9024,-5.9168,-5.9214,-5.923,-5.9421,-5.9279,-5.9289,-5.9296,-5.9301,-5.9746,-5.9751,0,0,0,0,0,0,-5.8656,-5.8689,-5.8956,-5.8967,-5.8783,-5.8912,-5.8934,-5.8999,-5.9103,-5.9115,-5.9027,-5.9022,-5.9197,-5.9216,-5.9236,-5.9429,-5.9291,-5.9302,-5.9308,-5.9741,-5.9747,-5.9752,0,0,0,0,0,0,-5.8649,-5.8681,-5.8949,-5.8828,-5.8861,-5.8923,-5.8996,-5.9004,-5.9051,-5.9122,-5.9132,-5.9064,-5.9194,-5.922,-5.9361,-5.9435,-5.9307,-5.9317,-5.9735,-5.9743,-5.975,-5.9816,0,0,0,0,0,0,-5.8638,-5.8678,-5.8739,-5.8829,-5.8868,-5.9072,-5.9001,-5.9011,-5.9071,-5.9066,-5.9159,-5.917,-5.9193,-5.9344,-5.9372,-5.9448,-5.9326,-5.9729,-5.9738,-5.9747,-5.9807,-5.9824,-5.9839,0,0,0,0,0,-5.8625,-5.8749,-5.8742,-5.8774,-5.8946,-5.9076,-5.9098,-5.9122,-5.9077,-5.9139,-5.9184,-5.9167,-5.9422,-5.9359,-5.939,-5.9471,-5.9724,-5.9736,-5.9747,-5.98,-5.9821,-5.9839,0,0,0,0,0,0,-5.8665,-5.8761,-5.8754,-5.8911,-5.8986,-5.9072,-5.915,-5.9143,-5.9231,-5.9223,-5.9248,-5.927,-5.9413,-5.9456,-5.9384,-5.963,-5.9567,-5.9585,-5.9597,-5.9617,-5.9633,-5.962,-5.9336,0,0,0,0,0,-5.8692,-5.879,-5.8869,-5.9,-5.9038,-5.9088,-5.9145,-5.9158,-5.9235,-5.9267,-5.9322,-5.9398,-5.9495,-5.9558,-5.9652,-5.9813,-5.9833,-5.9884,-5.99,-5.9913,-5.9928,-6.0018,-6.0041,-5.9789,-5.9789,-5.9789,0,0,-5.8749,-5.8814,-5.8874,-5.901,-5.9069,-5.917,-5.9114,-5.9223,-5.9298,-5.9283,-5.942,-5.9464,-5.955,-5.9702,-5.9772,-5.9742,-6.0002,-5.9927,-5.9937,-5.9945,-6.0032,-6.0056,-6.0077,-5.9797,-5.9795,-5.9794,0,0,-5.8904,-5.8963,-5.9079,-5.914,-5.923,-5.9263,-5.9291,-5.9379,-5.9407,-5.9546,-5.9537,-5.9626,-5.9793,-5.9855,-5.9908,-6.0089,-6.0077,-6.0118,-6.0202,-6.0289,-6.0309,-6.0327,-6.0392,-6.0415,-6.0133,-6.0133,-6.0134,0,-5.8963,-5.9116,-5.9139,-5.9251,-5.9311,-5.9302,-5.942,-5.9478,-5.9594,-5.9635,-5.9601,-5.9811,-5.9868,-6.0035,-6.008,-6.0123,-6.0156,-6.0108,-6.0304,-6.0322,-6.0339,-6.0402,-6.0426,-6.0138,-6.0137,-6.0137,-6.0137,0,-5.9184,-5.929,-5.9373,-5.9486,-5.9556,-5.967,-5.9711,-5.9778,-5.9785,-5.9821,-5.9963,-6.0031,-6.0139,-6.0179,-6.0186,-6.0349,-6.0327,-6.0298,-6.0236,-6.0368,-6.0427,-6.0451,-6.0144,-6.0143,-6.0142,-6.014,0,0,-5.9369,-5.9495,-5.9525,-5.9577,-5.9677,-5.9759,-5.9873,-5.9979,-6.0037,-6.0117,-6.0213,-6.0355,-6.033,-6.039,-6.0404,-6.0481,-6.062,-6.0442,-6.0445,-6.0474,-6.0804,-6.0826,-6.0853,-6.0613,-6.0617,-6.0621,-6.0797,0,-5.9535,-5.9736,-5.9762,-5.9941,-6.0039,-6.0033,-6.0132,-6.0204,-6.0241,-6.033,-6.0371,-6.0471,-6.0429,-6.0466,-6.0541,-6.0587,-6.0687,-6.0575,-6.0703,-6.0707,-6.0682,-6.0884,-6.0907,-6.107,-6.082,-6.0824,-6.0827,0,-5.9755,-5.9843,-6.0032,-6.0119,-6.0162,-6.025,-6.035,-6.0435,-6.0517,-6.0538,-6.0607,-6.0612,-6.0729,-6.0662,-6.0824,-6.0747,-6.0801,-6.0832,-6.0839,-6.0852,-6.0775,-6.0903,-6.1122,-6.1147,-6.0864,-6.0861,-6.0858,0,-5.9872,-6.0037,-6.0172,-6.0217,-6.0322,-6.0385,-6.0431,-6.0508,-6.0571,-6.0658,-6.0699,-6.0798,-6.0853,-6.093,-6.0961,-6.0909,-6.1122,-6.1057,-6.1144,-6.1143,-6.1189,-6.1186,-6.1421,-6.1223,-6.1223,-6.1222,-6.1222,0,-6.0055,-6.0171,-6.0227,-6.031,-6.044,-6.0468,-6.0596,-6.064,-6.0709,-6.08,-6.0801,-6.0886,-6.0922,-6.1014,-6.1039,-6.117,-6.1195,-6.1216,-6.1221,-6.1216,-6.1214,-6.1252,-6.1242,-6.1229,-6.1227,-6.1226,-6.1225,0,-6.0208,-6.0249,-6.0396,-6.0484,-6.0509,-6.0601,-6.0676,-6.0757,-6.0793,-6.0909,-6.0938,-6.0995,-6.1103,-6.1142,-6.1272,-6.1289,-6.1442,-6.1438,-6.1415,-6.1416,-6.1501,-6.1493,-6.1769,-6.1807,-6.1584,-6.1586,-6.1588,0,-6.0322,-6.0411,-6.0509,-6.0571,-6.062,-6.0719,-6.0783,-6.0814,-6.0881,-6.0982,-6.105,-6.1158,-6.1245,-6.1418,-6.1471,-6.1571,-6.157,-6.166,-6.1585,-6.1578,-6.1572,-6.1567,-6.1576,-6.1674,-6.1676,-6.1678,-6.1679,0,-6.052,-6.0537,-6.063,-6.0731,-6.0808,-6.0888,-6.0966,-6.1017,-6.106,-6.1135,-6.1246,-6.1314,-6.1448,-6.1555,-6.1658,-6.1706,-6.1701,-6.1703,-6.1728,-6.1724,-6.1708,-6.1719,-6.1454,-6.1696,-6.1695,-6.1693,-6.1692,-6.1692,-6.0658,-6.0738,-6.0819,-6.0923,-6.0985,-6.1059,-6.1139,-6.1186,-6.1279,-6.1392,-6.1404,-6.1524,-6.1604,-6.1742,-6.1794,-6.1888,-6.1864,-6.19,-6.191,-6.1919,-6.1925,-6.1693,-6.1907,-6.1906,-6.1906,-6.1906,-6.1905,0,-6.0857,-6.091,-6.1005,-6.1115,-6.1197,-6.1185,-6.1271,-6.134,-6.1446,-6.1521,-6.1608,-6.1736,-6.184,-6.1902,-6.2006,-6.2069,-6.207,-6.2096,-6.2092,-6.2103,-6.1941,-6.1909,-6.2094,-6.2094,-6.2094,-6.2094,-6.2094,-6.2094,-6.0971,-6.1105,-6.1132,-6.1297,-6.1349,-6.1467,-6.1517,-6.1585,-6.1645,-6.1788,-6.1875,-6.1915,-6.1985,-6.2095,-6.219,-6.2206,-6.2244,-6.2273,-6.2286,-6.2134,-6.2114,-6.2096,-6.2066,-6.2281,-6.2281,-6.2441,-6.2442,-6.2443]}]]